| time (UTC) | temp C | wind direction | speed KPH | gust KPH | rain 1hr cm | rain 24hr cm | rain mn cm | humidity % | barometer mb |
| 20260504215246 | 24 | 250 | 19.3 | 32.2 | 0.00 | 0.00 | 0.00 | 42 | 1004.3 |
| 20260504214741 | 24 | 233 | 17.7 | 24.1 | 0.00 | 0.00 | 0.00 | 42 | 1003.9 |
| 20260504214238 | 24 | 271 | 20.9 | 32.2 | 0.00 | 0.00 | 0.00 | 42 | 1004.3 |
| 20260504213735 | 24 | 183 | 12.9 | 29.0 | 0.00 | 0.00 | 0.00 | 42 | 1004.1 |
| 20260504213231 | 25 | 264 | 14.5 | 22.5 | 0.00 | 0.00 | 0.00 | 42 | 1004.1 |
| 20260504212729 | 25 | 328 | 17.7 | 35.4 | 0.00 | 0.00 | 0.00 | 42 | 1004.1 |
| 20260504212225 | 23 | 171 | 8.0 | 12.9 | 0.00 | 0.00 | 0.00 | 45 | 1004.1 |
| 20260504211723 | 25 | 257 | 20.9 | 25.7 | 0.00 | 0.00 | 0.00 | 42 | 1004.3 |
| 20260504211219 | 25 | 223 | 4.8 | 22.5 | 0.00 | 0.00 | 0.00 | 42 | 1004.1 |
| 20260504210716 | 25 | 306 | 14.5 | 32.2 | 0.00 | 0.00 | 0.00 | 41 | 1004.2 |
| 20260504210213 | 24 | 220 | 6.4 | 14.5 | 0.00 | 0.00 | 0.00 | 42 | 1004.1 |
| 20260504205710 | 24 | 194 | 4.8 | 12.9 | 0.00 | 0.00 | 0.00 | 43 | 1004.1 |
| 20260504205208 | 24 | 227 | 12.9 | 25.7 | 0.00 | 0.00 | 0.00 | 43 | 1004.3 |
| 20260504204706 | 24 | 254 | 12.9 | 38.6 | 0.00 | 0.00 | 0.00 | 43 | 1004.2 |
| 20260504204204 | 24 | 246 | 8.0 | 27.4 | 0.00 | 0.00 | 0.00 | 43 | 1004.1 |
| 20260504203703 | 25 | 245 | 4.8 | 17.7 | 0.00 | 0.00 | 0.00 | 42 | 1003.9 |
| 20260504203200 | 25 | 231 | 22.5 | 33.8 | 0.00 | 0.00 | 0.00 | 43 | 1004.2 |
| 20260504202700 | 24 | 259 | 14.5 | 27.4 | 0.00 | 0.00 | 0.00 | 43 | 1004.2 |
| 20260504202158 | 25 | 230 | 12.9 | 33.8 | 0.00 | 0.00 | 0.00 | 43 | 1004.2 |
| 20260504201654 | 25 | 221 | 11.3 | 22.5 | 0.00 | 0.00 | 0.00 | 43 | 1004.2 |
| 20260504201152 | 25 | 219 | 12.9 | 20.9 | 0.00 | 0.00 | 0.00 | 44 | 1004.4 |
| 20260504200649 | 25 | 184 | 19.3 | 25.7 | 0.00 | 0.00 | 0.00 | 43 | 1004.4 |
| 20260504200145 | 25 | 191 | 12.9 | 25.7 | 0.00 | 0.00 | 0.00 | 43 | 1004.4 |
| 20260504195641 | 25 | 226 | 14.5 | 16.1 | 0.00 | 0.00 | 0.00 | 42 | 1004.8 |
| 20260504195138 | 24 | 242 | 8.0 | 14.5 | 0.00 | 0.00 | 0.00 | 45 | 1004.8 |
| 20260504194635 | 23 | 257 | 19.3 | 27.4 | 0.00 | 0.00 | 0.00 | 45 | 1004.8 |
| 20260504194131 | 24 | 11 | 14.5 | 35.4 | 0.00 | 0.00 | 0.00 | 44 | 1005.1 |
| 20260504193627 | 24 | 326 | 22.5 | 43.5 | 0.00 | 0.00 | 0.00 | 43 | 1005.0 |
| 20260504193126 | 25 | 281 | 22.5 | 29.0 | 0.00 | 0.00 | 0.00 | 40 | 1004.9 |
| 20260504192623 | 24 | 291 | 6.4 | 9.7 | 0.00 | 0.00 | 0.00 | 47 | 1005.1 |
| 20260504192121 | 24 | 246 | 17.7 | 32.2 | 0.00 | 0.00 | 0.00 | 43 | 1004.9 |
| 20260504191619 | 24 | 7 | 8.0 | 20.9 | 0.00 | 0.00 | 0.00 | 46 | 1005.0 |
| 20260504191115 | 23 | 236 | 11.3 | 20.9 | 0.00 | 0.00 | 0.00 | 46 | 1004.9 |
| 20260504190611 | 24 | 238 | 6.4 | 17.7 | 0.00 | 0.00 | 0.00 | 46 | 1004.9 |
| 20260504190108 | 23 | 171 | 11.3 | 14.5 | 0.00 | 0.00 | 0.00 | 48 | 1005.3 |
| 20260504185604 | 23 | 186 | 8.0 | 17.7 | 0.00 | 0.00 | 0.00 | 46 | 1005.0 |
| 20260504185101 | 24 | 274 | 8.0 | 20.9 | 0.00 | 0.00 | 0.00 | 48 | 1005.1 |
| 20260504184557 | 24 | 228 | 6.4 | 11.3 | 0.00 | 0.00 | 0.00 | 48 | 1005.1 |
| 20260504184052 | 24 | 72 | 8.0 | 12.9 | 0.00 | 0.00 | 0.00 | 47 | 1005.2 |
| 20260504183549 | 23 | 279 | 6.4 | 17.7 | 0.00 | 0.00 | 0.00 | 46 | 1005.5 |
| 20260504183047 | 23 | 224 | 8.0 | 22.5 | 0.00 | 0.00 | 0.00 | 47 | 1005.3 |
| 20260504182544 | 23 | 224 | 8.0 | 20.9 | 0.00 | 0.00 | 0.00 | 47 | 1005.3 |
| 20260504182042 | 23 | 273 | 11.3 | 17.7 | 0.00 | 0.00 | 0.00 | 47 | 1005.4 |
| 20260504181538 | 23 | 126 | 14.5 | 27.4 | 0.00 | 0.00 | 0.00 | 46 | 1005.3 |
| 20260504181037 | 23 | 217 | 12.9 | 17.7 | 0.00 | 0.00 | 0.00 | 48 | 1005.3 |
| 20260504180535 | 23 | 230 | 9.7 | 16.1 | 0.00 | 0.00 | 0.00 | 49 | 1005.5 |
| 20260504180034 | 23 | 240 | 9.7 | 16.1 | 0.00 | 0.00 | 0.00 | 49 | 1005.6 |
| 20260504175531 | 22 | 250 | 6.4 | 22.5 | 0.00 | 0.00 | 0.00 | 51 | 1005.5 |
| 20260504175028 | 22 | 160 | 20.9 | 32.2 | 0.00 | 0.00 | 0.00 | 50 | 1005.4 |
| 20260504174526 | 23 | 289 | 14.5 | 20.9 | 0.00 | 0.00 | 0.00 | 52 | 1005.9 |
| 20260504174022 | 22 | 212 | 8.0 | 16.1 | 0.00 | 0.00 | 0.00 | 51 | 1005.8 |
| 20260504173519 | 22 | 270 | 8.0 | 16.1 | 0.00 | 0.00 | 0.00 | 52 | 1005.9 |
| 20260504173016 | 22 | 269 | 17.7 | 20.9 | 0.00 | 0.00 | 0.00 | 51 | 1005.8 |
| 20260504172512 | 22 | 249 | 8.0 | 11.3 | 0.00 | 0.00 | 0.00 | 51 | 1006.1 |
| 20260504172009 | 22 | 228 | 3.2 | 11.3 | 0.00 | 0.00 | 0.00 | 52 | 1006.2 |
| 20260504171506 | 22 | 286 | 22.5 | 33.8 | 0.00 | 0.00 | 0.00 | 50 | 1006.2 |
| 20260504171003 | 21 | 227 | 9.7 | 22.5 | 0.00 | 0.00 | 0.00 | 53 | 1006.5 |
| 20260504170459 | 21 | 236 | 4.8 | 12.9 | 0.00 | 0.00 | 0.00 | 55 | 1006.5 |
| 20260504160419 | 20 | 229 | 1.6 | 4.8 | 0.00 | 0.00 | 0.00 | 58 | 1007.5 |
| 20260504150843 | 17 | 260 | 14.5 | 16.1 | 0.00 | 0.00 | 0.00 | 58 | 1007.6 |
| 20260504150339 | 17 | 228 | 4.8 | 11.3 | 0.00 | 0.00 | 0.00 | 58 | 1007.8 |
| 20260504141309 | 15 | 285 | 4.8 | 9.7 | 0.00 | 0.00 | 0.00 | 66 | 1008.2 |
| 20260504140806 | 16 | 234 | 4.8 | 4.8 | 0.00 | 0.00 | 0.00 | 64 | 1008.2 |
| 20260504140302 | 15 | 229 | 3.2 | 8.0 | 0.00 | 0.00 | 0.00 | 65 | 1008.3 |
| 20260504130730 | 13 | 232 | 3.2 | 9.7 | 0.00 | 0.00 | 0.00 | 69 | 1008.4 |
| 20260504130226 | 13 | 242 | 8.0 | 9.7 | 0.00 | 0.00 | 0.00 | 68 | 1008.5 |
| 20260504120150 | 11 | 227 | 4.8 | 4.8 | 0.00 | 0.00 | 0.00 | 72 | 1008.7 |
| 20260504110618 | 10 | 227 | 3.2 | 3.2 | 0.00 | 0.00 | 0.00 | 78 | 1008.7 |
| 20260504110114 | 9 | 263 | 0.0 | 3.2 | 0.00 | 0.00 | 0.00 | 77 | 1008.6 |
| 20260504100539 | 9 | 207 | 3.2 | 3.2 | 0.00 | 0.00 | 0.00 | 78 | 1008.7 |
| 20260504081933 | 6 | 274 | 0.0 | 1.6 | 0.00 | 0.00 | 0.00 | 90 | 1009.0 |
| 20260504081430 | 6 | 290 | 0.0 | 1.6 | 0.00 | 0.00 | 0.00 | 90 | 1009.4 |
| 20260504080926 | 6 | 301 | 1.6 | 1.6 | 0.00 | 0.00 | 0.00 | 90 | 1009.2 |
| 20260504080423 | 6 | 273 | 0.0 | 0.0 | 0.00 | 0.00 | 0.00 | 90 | 1009.2 |
| 20260504070350 | 6 | 260 | 0.0 | 0.0 | 0.00 | 0.00 | 0.00 | 91 | 1010.0 |
| 20260504050738 | 7 | 255 | 0.0 | 0.0 | 0.00 | 0.00 | 0.00 | 82 | 1011.1 |
| 20260504050235 | 8 | 256 | 0.0 | 0.0 | 0.00 | 0.00 | 0.00 | 81 | 1011.1 |
| 20260504045732 | 8 | 264 | 0.0 | 0.0 | 0.00 | 0.00 | 0.00 | 80 | 1011.1 |
| 20260504045227 | 8 | 243 | 0.0 | 1.6 | 0.00 | 0.00 | 0.00 | 79 | 1011.1 |
| 20260504044725 | 8 | 226 | 1.6 | 1.6 | 0.00 | 0.00 | 0.00 | 79 | 1011.2 |
| 20260504044222 | 8 | 233 | 1.6 | 1.6 | 0.00 | 0.00 | 0.00 | 79 | 1011.3 |
| 20260504043719 | 8 | 234 | 1.6 | 1.6 | 0.00 | 0.00 | 0.00 | 79 | 1011.2 |
| 20260504043216 | 8 | 222 | 1.6 | 3.2 | 0.00 | 0.00 | 0.00 | 79 | 1011.4 |
| 20260504042714 | 8 | 252 | 1.6 | 1.6 | 0.00 | 0.00 | 0.00 | 79 | 1011.4 |
| 20260504042210 | 8 | 228 | 1.6 | 1.6 | 0.00 | 0.00 | 0.00 | 80 | 1011.4 |
| 20260504041706 | 8 | 260 | 0.0 | 1.6 | 0.00 | 0.00 | 0.00 | 79 | 1011.5 |
| 20260504041202 | 8 | 247 | 3.2 | 3.2 | 0.00 | 0.00 | 0.00 | 79 | 1011.5 |
| 20260504040659 | 8 | 243 | 1.6 | 1.6 | 0.00 | 0.00 | 0.00 | 79 | 1011.6 |
| 20260504040156 | 8 | 255 | 0.0 | 1.6 | 0.00 | 0.00 | 0.00 | 79 | 1011.4 |
| 20260504035652 | 8 | 236 | 0.0 | 1.6 | 0.00 | 0.00 | 0.00 | 79 | 1011.5 |
| 20260504035150 | 8 | 244 | 1.6 | 1.6 | 0.00 | 0.00 | 0.00 | 79 | 1011.5 |
| 20260504034647 | 8 | 251 | 0.0 | 1.6 | 0.00 | 0.00 | 0.00 | 79 | 1011.7 |
| 20260504034144 | 8 | 238 | 1.6 | 1.6 | 0.00 | 0.00 | 0.00 | 79 | 1011.7 |
| 20260504033642 | 8 | 230 | 1.6 | 1.6 | 0.00 | 0.00 | 0.00 | 79 | 1011.7 |
| 20260504033139 | 8 | 231 | 1.6 | 3.2 | 0.00 | 0.00 | 0.00 | 79 | 1012.0 |
| 20260504032635 | 8 | 213 | 1.6 | 1.6 | 0.00 | 0.00 | 0.00 | 79 | 1011.8 |
| 20260504032132 | 8 | 230 | 1.6 | 1.6 | 0.00 | 0.00 | 0.00 | 79 | 1011.9 |
| 20260504031630 | 8 | 246 | 1.6 | 3.2 | 0.00 | 0.00 | 0.00 | 79 | 1012.0 |
| 20260504031126 | 8 | 236 | 1.6 | 1.6 | 0.00 | 0.00 | 0.00 | 79 | 1012.2 |
| 20260504030623 | 8 | 229 | 1.6 | 1.6 | 0.00 | 0.00 | 0.00 | 80 | 1012.1 |
| 20260504030119 | 8 | 229 | 1.6 | 3.2 | 0.00 | 0.00 | 0.00 | 80 | 1012.1 |
| 20260504025616 | 8 | 228 | 1.6 | 3.2 | 0.00 | 0.00 | 0.00 | 80 | 1012.2 |
| 20260504025113 | 8 | 226 | 1.6 | 1.6 | 0.00 | 0.00 | 0.00 | 80 | 1012.2 |
| 20260504024611 | 8 | 215 | 1.6 | 3.2 | 0.00 | 0.00 | 0.00 | 80 | 1012.3 |
| 20260504024107 | 8 | 211 | 1.6 | 3.2 | 0.00 | 0.00 | 0.00 | 80 | 1012.3 |
| 20260504023603 | 8 | 198 | 1.6 | 3.2 | 0.00 | 0.00 | 0.00 | 80 | 1012.4 |
| 20260504023059 | 8 | 200 | 1.6 | 3.2 | 0.00 | 0.00 | 0.00 | 80 | 1012.4 |
| 20260504022556 | 8 | 233 | 1.6 | 1.6 | 0.00 | 0.00 | 0.00 | 81 | 1012.4 |
| 20260504022052 | 8 | 228 | 1.6 | 1.6 | 0.00 | 0.00 | 0.00 | 80 | 1012.4 |
| 20260504021549 | 8 | 247 | 3.2 | 3.2 | 0.00 | 0.00 | 0.00 | 80 | 1012.2 |
| 20260504021046 | 8 | 236 | 1.6 | 3.2 | 0.00 | 0.00 | 0.00 | 79 | 1012.3 |
| 20260504020543 | 9 | 220 | 1.6 | 3.2 | 0.00 | 0.00 | 0.00 | 79 | 1012.4 |
| 20260504020040 | 9 | 263 | 1.6 | 3.2 | 0.00 | 0.00 | 0.00 | 79 | 1012.4 |
| 20260504015536 | 9 | 252 | 4.8 | 4.8 | 0.00 | 0.00 | 0.00 | 79 | 1012.4 |
| 20260504015032 | 9 | 212 | 3.2 | 4.8 | 0.00 | 0.00 | 0.00 | 79 | 1012.3 |
| 20260504014528 | 9 | 244 | 1.6 | 4.8 | 0.00 | 0.00 | 0.00 | 78 | 1012.3 |
| 20260504014026 | 9 | 285 | 0.0 | 4.8 | 0.00 | 0.00 | 0.00 | 78 | 1012.2 |
| 20260504013524 | 9 | 249 | 1.6 | 8.0 | 0.00 | 0.00 | 0.00 | 78 | 1012.4 |
| 20260504013020 | 10 | 256 | 3.2 | 4.8 | 0.00 | 0.00 | 0.00 | 77 | 1012.4 |
| 20260504012518 | 10 | 230 | 3.2 | 8.0 | 0.00 | 0.00 | 0.00 | 77 | 1012.5 |
| 20260504012016 | 10 | 166 | 3.2 | 8.0 | 0.00 | 0.00 | 0.00 | 77 | 1012.4 |
| 20260504011512 | 10 | 229 | 3.2 | 4.8 | 0.00 | 0.00 | 0.00 | 76 | 1012.5 |
| 20260504011008 | 10 | 255 | 1.6 | 8.0 | 0.00 | 0.00 | 0.00 | 76 | 1012.4 |
| 20260504010504 | 10 | 219 | 1.6 | 4.8 | 0.00 | 0.00 | 0.00 | 76 | 1012.4 |
| 20260504010000 | 10 | 243 | 1.6 | 4.8 | 0.00 | 0.00 | 0.00 | 76 | 1012.5 |
| 20260504005456 | 10 | 230 | 0.0 | 1.6 | 0.00 | 0.00 | 0.00 | 77 | 1012.4 |
| 20260504004954 | 10 | 179 | 3.2 | 8.0 | 0.00 | 0.00 | 0.00 | 77 | 1012.6 |
| 20260504004452 | 10 | 188 | 1.6 | 3.2 | 0.00 | 0.00 | 0.00 | 77 | 1012.5 |
| 20260504003949 | 10 | 218 | 1.6 | 4.8 | 0.00 | 0.00 | 0.00 | 77 | 1012.7 |
| 20260504003445 | 10 | 226 | 3.2 | 9.7 | 0.00 | 0.00 | 0.00 | 77 | 1012.6 |
| 20260504002942 | 10 | 211 | 3.2 | 4.8 | 0.00 | 0.00 | 0.00 | 77 | 1012.8 |
| 20260504002439 | 10 | 228 | 4.8 | 4.8 | 0.00 | 0.00 | 0.00 | 77 | 1012.9 |
| 20260504001936 | 10 | 157 | 4.8 | 8.0 | 0.00 | 0.00 | 0.00 | 78 | 1012.8 |
| 20260504001433 | 10 | 184 | 3.2 | 4.8 | 0.00 | 0.00 | 0.00 | 78 | 1012.8 |
| 20260504000930 | 10 | 247 | 3.2 | 4.8 | 0.00 | 0.00 | 0.00 | 78 | 1012.8 |
| 20260504000427 | 10 | 244 | 0.0 | 3.2 | 0.00 | 0.00 | 0.00 | 77 | 1012.8 |
| 20260503235924 | 10 | 212 | 1.6 | 4.8 | 0.00 | 0.00 | 0.00 | 77 | 1013.0 |
| 20260503235422 | 10 | 199 | 4.8 | 4.8 | 0.00 | 0.00 | 0.00 | 77 | 1013.0 |
| 20260503234919 | 10 | 208 | 4.8 | 4.8 | 0.00 | 0.00 | 0.00 | 76 | 1013.0 |
| 20260503234417 | 10 | 190 | 3.2 | 8.0 | 0.00 | 0.00 | 0.00 | 76 | 1013.2 |
| 20260503233914 | 10 | 237 | 3.2 | 3.2 | 0.00 | 0.00 | 0.00 | 76 | 1013.0 |
| 20260503233411 | 10 | 252 | 0.0 | 4.8 | 0.00 | 0.00 | 0.00 | 76 | 1013.1 |
| 20260503232907 | 10 | 216 | 1.6 | 4.8 | 0.00 | 0.00 | 0.00 | 75 | 1013.2 |
| 20260503232405 | 10 | 231 | 1.6 | 3.2 | 0.00 | 0.00 | 0.00 | 76 | 1013.2 |
| 20260503231902 | 10 | 209 | 3.2 | 4.8 | 0.00 | 0.00 | 0.00 | 75 | 1013.3 |
| 20260503231359 | 10 | 206 | 1.6 | 8.0 | 0.00 | 0.00 | 0.00 | 75 | 1013.4 |
| 20260503230855 | 10 | 200 | 1.6 | 9.7 | 0.00 | 0.00 | 0.00 | 75 | 1013.3 |
| 20260503230352 | 10 | 250 | 4.8 | 4.8 | 0.00 | 0.00 | 0.00 | 76 | 1013.4 |
| 20260503225850 | 10 | 240 | 3.2 | 3.2 | 0.00 | 0.00 | 0.00 | 77 | 1013.5 |
| 20260503225345 | 10 | 248 | 3.2 | 4.8 | 0.00 | 0.00 | 0.00 | 76 | 1013.6 |
| 20260503224842 | 10 | 182 | 4.8 | 11.3 | 0.00 | 0.00 | 0.00 | 76 | 1013.7 |
| 20260503224339 | 10 | 218 | 3.2 | 4.8 | 0.00 | 0.00 | 0.00 | 76 | 1013.6 |
| 20260503223837 | 10 | 263 | 1.6 | 4.8 | 0.00 | 0.00 | 0.00 | 77 | 1013.5 |
| 20260503223334 | 10 | 287 | 1.6 | 4.8 | 0.00 | 0.00 | 0.00 | 77 | 1013.7 |
| 20260503222830 | 10 | 223 | 1.6 | 8.0 | 0.00 | 0.00 | 0.00 | 76 | 1013.9 |
| 20260503222329 | 10 | 247 | 1.6 | 3.2 | 0.00 | 0.00 | 0.00 | 77 | 1013.9 |
| 20260503221826 | 10 | 246 | 1.6 | 3.2 | 0.00 | 0.00 | 0.00 | 77 | 1014.1 |
| 20260503221325 | 10 | 174 | 3.2 | 4.8 | 0.00 | 0.00 | 0.00 | 77 | 1013.7 |
| 20260503220820 | 10 | 219 | 4.8 | 4.8 | 0.00 | 0.00 | 0.00 | 76 | 1013.9 |
| 20260503220318 | 10 | 239 | 0.0 | 3.2 | 0.00 | 0.00 | 0.00 | 76 | 1014.0 |
| 20260503215814 | 10 | 272 | 1.6 | 4.8 | 0.00 | 0.00 | 0.00 | 76 | 1014.0 |